Terug naar catalogus

TAIJING-2 04

ActiefWetenschapSSO
NORAD 58820·PAYLOAD·🇨🇳 China

Gelanceerd Jan 23, 2024 vanaf Jiuquan Satellite Launch Center

Loading…

Volgende Passages (komende 24 uur)

TLE

VersSource: Space-Track

Epoch: Sep 14, 2026, 22:25 UTC

1 58820U 24016A   26257.93403968  .00043038  00000-0  51785-3 0  9997
2 58820  97.4472 357.2952 0005832  85.2978 274.8945 15.60702980148042

Volg TAIJING-2 04 in realtime met AllMySat

Download on the App Store